Main page
METAR-TAF:

METAR-TAF

Airports :

Teruel Airport

Teruel, Spain

latitude: 40-24-43N, longitude: 01-13-03W, elevation: 1030 m

Current weather observation

The report was made 9 hours and 29 minutes ago, at 21:00 UTC
Wind 12 kt from the North/Northwest
Temperature 0°C
Humidity 93%
Pressure 1009 hPa
Visibility 10 km or more
Few clouds at a height of 4700 ft

METAR: LETL 222100Z AUTO 33012KT 9999 FEW047 00/M01 Q1009

Time: 07:29 (06:29 UTC)


TAF: missing

Weather observations and forecasts of more than 4000 airports (METAR and TAF reports).

The available stations are represented by yellow and red dots on the map.

Hover mouse over dot to see the name of the station.

Then click to see weather observations and forecasts.

To change the map : click on the green buttons with a black cross to zoom in, on the green button with a dash to zoom out, or on the green arrows for adjacent maps.


METAR-TAF: